Cavalier, ND

4:04 PM CST on December 14, 2017 (GMT -0600)
Cavalier

Weather History for K2C8 - September, 2012

Change the Weather History Date:

Friday, September 28, 2012

  Actual Average (KGAF) Record (KGAF)
Temperature  
Mean Temperature 58 °F -  
Max Temperature 75 °F 63 °F 95 °F (1952)
Min Temperature 41 °F 39 °F 21 °F (1974)
Degree Days  
Heating Degree Days 7    
Growing Degree Days 8 (Base 50)    
Moisture  
Dew Point 38 °F    
Average Humidity 55    
Maximum Humidity 87    
Minimum Humidity 25    
Precipitation  
Precipitation 0.00 in - - ()
Sea Level Pressure  
Sea Level Pressure 30.09 in    
Wind  
Wind Speed 2 mph (NNW)    
Max Wind Speed 7 mph    
Max Gust Speed -    
Visibility 8 miles    
Events      
Averages and records for this station are not official NWS values.
T = Trace of Precipitation, MM = Missing Value Source: NWS Daily Summary

Daily Weather History Graph

Daily Weather History Graph

Search for Another Location

Airport or City:

Trip Planner

Search our weather history database for the weather conditions in past years. The results will help you decide how hot, cold, wet, or windy it might be!

Date:

Astronomy

Sep. 28, 2012 Rise Set
Actual Time 7:26 AM CDT 7:14 PM CDT
Civil Twilight 6:55 AM CDT 7:45 PM CDT
Nautical Twilight 6:18 AM CDT 8:22 PM CDT
Astronomical Twilight 5:40 AM CDT 8:59 PM CDT
Moon 6:18 PM CDT (9/28) 5:54 AM CDT (9/28)
Length of Visible Light 12h 50m
Length of Day
11h 48m
Waxing Gibbous, 98% of the Moon is Illuminated
Sep 28
Waxing Gibbous
Sep 29
Full
Oct 8
Last Quarter
Oct 15
New
Oct 21
First Quarter

Hourly Weather History & Observations

Time (CDT) Temp. Windchill Dew Point Humidity Pressure Visibility Wind Dir Wind Speed Gust Speed Precip Events Conditions
12:15 AM 46.4 °F - 37.4 °F 71% 30.10 in 7.0 mi Calm Calm - N/A   Clear
12:35 AM 46.4 °F - 35.6 °F 66% 30.10 in 7.0 mi Calm Calm - N/A   Clear
12:55 AM 44.6 °F - 35.6 °F 71% 30.10 in 5.0 mi Calm Calm - N/A   Haze
1:15 AM 44.6 °F - 35.6 °F 71% 30.10 in 5.0 mi Calm Calm - N/A   Haze
1:35 AM 42.8 °F - 35.6 °F 76% 30.10 in 7.0 mi Calm Calm - N/A   Clear
1:55 AM 42.8 °F - 33.8 °F 70% 30.09 in 6.0 mi Calm Calm - N/A   Haze
2:15 AM 41.0 °F 39.0 °F 37.4 °F 87% 30.09 in 8.0 mi South 3.5 mph - N/A   Clear
2:35 AM 41.0 °F - 35.6 °F 81% 30.09 in 8.0 mi Calm Calm - N/A   Clear
2:55 AM 41.0 °F - 33.8 °F 76% 30.09 in 10.0 mi Calm Calm - N/A   Clear
3:15 AM 41.0 °F - 33.8 °F 76% 30.09 in 10.0 mi Calm Calm - N/A   Clear
3:35 AM 41.0 °F - 33.8 °F 76% 30.09 in 10.0 mi Calm Calm - N/A   Clear
3:55 AM 41.0 °F - 35.6 °F 81% 30.09 in 10.0 mi Calm Calm - N/A   Clear
4:15 AM 41.0 °F - 35.6 °F 81% 30.09 in 10.0 mi Calm Calm - N/A   Clear
4:35 AM 41.0 °F 39.0 °F 33.8 °F 76% 30.10 in 10.0 mi West 3.5 mph - N/A   Clear
4:55 AM 41.0 °F 39.0 °F 33.8 °F 76% 30.10 in 10.0 mi West 3.5 mph - N/A   Clear
5:15 AM 44.6 °F 43.1 °F 35.6 °F 71% 30.10 in 10.0 mi West 3.5 mph - N/A   Clear
5:35 AM 42.8 °F 41.1 °F 35.6 °F 76% 30.09 in 10.0 mi WNW 3.5 mph - N/A   Clear
5:55 AM 46.4 °F 43.5 °F 37.4 °F 71% 30.09 in 10.0 mi NNW 5.8 mph - N/A   Clear
6:15 AM 46.4 °F 42.9 °F 37.4 °F 71% 30.09 in 10.0 mi NNW 6.9 mph - N/A   Clear
6:35 AM 46.4 °F 43.5 °F 37.4 °F 71% 30.10 in 10.0 mi NNW 5.8 mph - N/A   Clear
6:55 AM 46.4 °F 44.3 °F 37.4 °F 71% 30.10 in 10.0 mi NNW 4.6 mph - N/A   Clear
7:15 AM 46.4 °F 45.2 °F 37.4 °F 71% 30.11 in 10.0 mi North 3.5 mph - N/A   Clear
7:35 AM 46.4 °F 45.2 °F 37.4 °F 71% 30.11 in 10.0 mi North 3.5 mph - N/A   Clear
7:55 AM 46.4 °F 45.2 °F 37.4 °F 71% 30.11 in 8.0 mi NW 3.5 mph - N/A   Clear
8:15 AM 46.4 °F 43.5 °F 37.4 °F 71% 30.12 in 9.0 mi North 5.8 mph - N/A   Clear
8:35 AM 48.2 °F - 37.4 °F 66% 30.12 in 9.0 mi NNW 5.8 mph - N/A   Clear
8:55 AM 48.2 °F - 37.4 °F 66% 30.12 in 8.0 mi NW 3.5 mph - N/A   Clear
9:15 AM 50.0 °F - 39.2 °F 66% 30.12 in 8.0 mi NW 4.6 mph - N/A   Clear
9:35 AM 51.8 °F - 39.2 °F 62% 30.13 in 9.0 mi NW 5.8 mph - N/A   Clear
9:55 AM 53.6 °F - 39.2 °F 58% 30.14 in 10.0 mi NNW 5.8 mph - N/A   Clear
11:35 AM - - - N/A% 30.15 in - NE 5.8 mph - N/A   Unknown
11:55 AM 62.6 °F - 37.4 °F 39% 30.15 in 7.0 mi NNE 4.6 mph - N/A   Clear
12:15 PM 64.4 °F - 37.4 °F 37% 30.15 in 7.0 mi Calm Calm - N/A   Clear
12:35 PM 66.2 °F - 37.4 °F 35% 30.14 in 8.0 mi Calm Calm - N/A   Clear
12:55 PM 66.2 °F - 37.4 °F 35% 30.13 in 8.0 mi Calm Calm - N/A   Clear
1:15 PM 68.0 °F - 39.2 °F 35% 30.12 in 7.0 mi Calm Calm - N/A   Clear
1:35 PM 69.8 °F - 37.4 °F 31% 30.12 in 8.0 mi Calm Calm - N/A   Clear
1:55 PM 71.6 °F - 39.2 °F 31% 30.11 in 8.0 mi Calm Calm - N/A   Clear
2:15 PM 71.6 °F - 39.2 °F 31% 30.10 in 8.0 mi NNE 3.5 mph - N/A   Clear
2:35 PM 73.4 °F - 39.2 °F 29% 30.10 in 8.0 mi NNW 4.6 mph - N/A   Clear
2:55 PM 73.4 °F - 39.2 °F 29% 30.10 in 8.0 mi NNE 4.6 mph - N/A   Clear
3:15 PM 75.2 °F - 39.2 °F 27% 30.09 in 8.0 mi Calm Calm - N/A   Clear
3:35 PM 75.2 °F - 39.2 °F 27% 30.09 in 8.0 mi NNE 4.6 mph - N/A   Clear
3:55 PM 75.2 °F - 39.2 °F 27% 30.09 in 8.0 mi NE 4.6 mph - N/A   Clear
4:15 PM 75.2 °F - 39.2 °F 27% 30.08 in 9.0 mi Calm Calm - N/A   Clear
4:35 PM 75.2 °F - 37.4 °F 25% 30.08 in 10.0 mi NE 3.5 mph - N/A   Clear
4:55 PM 75.2 °F - 39.2 °F 27% 30.08 in 10.0 mi Calm Calm - N/A   Clear
5:15 PM 75.2 °F - 39.2 °F 27% 30.07 in 9.0 mi Calm Calm - N/A   Clear
5:35 PM 75.2 °F - 37.4 °F 25% 30.07 in 9.0 mi Calm Calm - N/A   Clear
5:55 PM 75.2 °F - 39.2 °F 27% 30.07 in 7.0 mi SSE 3.5 mph - N/A   Clear
6:15 PM 75.2 °F - 39.2 °F 27% 30.07 in 9.0 mi Calm Calm - N/A   Clear
6:35 PM 73.4 °F - 39.2 °F 29% 30.07 in 9.0 mi Calm Calm - N/A   Clear
6:55 PM 71.6 °F - 39.2 °F 31% 30.06 in 4.0 mi Calm Calm - N/A   Haze
7:15 PM 68.0 °F - 39.2 °F 35% 30.06 in 8.0 mi East 3.5 mph - N/A   Clear
7:35 PM 66.2 °F - 39.2 °F 37% 30.06 in 7.0 mi Calm Calm - N/A   Clear
7:55 PM 60.8 °F - 42.8 °F 52% 30.06 in 4.0 mi Calm Calm - N/A   Haze
8:15 PM 59.0 °F - 39.2 °F 48% 30.06 in 3.0 mi Calm Calm - N/A   Haze
8:35 PM 55.4 °F - 37.4 °F 51% 30.07 in 2.5 mi Calm Calm - N/A   Haze
8:55 PM 55.4 °F - 37.4 °F 51% 30.07 in 5.0 mi Calm Calm - N/A   Haze
9:15 PM 53.6 °F - 37.4 °F 54% 30.07 in 4.0 mi Calm Calm - N/A   Haze
9:35 PM 53.6 °F - 39.2 °F 58% 30.07 in 5.0 mi Calm Calm - N/A   Haze
9:55 PM 50.0 °F - 37.4 °F 62% 30.07 in 4.0 mi Calm Calm - N/A   Haze
10:15 PM 50.0 °F - 37.4 °F 62% 30.07 in 3.0 mi West 3.5 mph - N/A   Haze
10:35 PM 50.0 °F - 37.4 °F 62% 30.07 in 8.0 mi Calm Calm - N/A   Clear
10:55 PM 50.0 °F - 37.4 °F 62% 30.07 in 5.0 mi Calm Calm - N/A   Haze
11:15 PM 48.2 °F - 35.6 °F 62% 30.07 in 4.0 mi Calm Calm - N/A   Haze
11:35 PM 48.2 °F - 41.0 °F 76% 30.08 in 6.0 mi Calm Calm - N/A   Haze
11:55 PM 48.2 °F - 39.2 °F 71% 30.08 in 5.0 mi Calm Calm - N/A   Haze